RYR00L EGKK-BIKF

Flight info

Callsign RYR00L
Flight time 2h 56m
Altitude 36000
Route SAM N19 ADKIK DCT UNFIT DCT PENWU DCT NICXI DCT VATRY DCT ERNAN DCT KUGUR DCT AGORI/M080F360 DCT 58N015W 61N020W DCT BASLU BASLU3K
Aircraft B738/M-SDE2E3FGHIRWXY/LB1

Departure

Time 2026-04-26 22:17
Airport London Gatwick Airport (EGKK)

Arrival

Time 2026-04-27 01:14
Airport Keflavik International Airport (BIKF)
Time Latitude Longitude Altitude Speed Heading
2026-04-26 22:01 51.15298 -0.17420 187 ft 0 kts 257°
2026-04-26 22:08 51.15290 -0.17469 189 ft 0 kts 256°
2026-04-26 22:09 51.15288 -0.17484 190 ft 2 kts 256°
2026-04-26 22:09 51.15288 -0.17517 191 ft 4 kts 337°
2026-04-26 22:10 51.15293 -0.17527 190 ft 2 kts 266°
2026-04-26 22:10 51.15279 -0.17590 190 ft 8 kts 253°
2026-04-26 22:10 51.15255 -0.17714 190 ft 14 kts 252°
2026-04-26 22:10 51.15232 -0.17890 193 ft 18 kts 260°
2026-04-26 22:11 51.15204 -0.18117 191 ft 23 kts 259°
2026-04-26 22:11 51.15172 -0.18378 194 ft 23 kts 259°
2026-04-26 22:11 51.15141 -0.18637 194 ft 24 kts 259°
2026-04-26 22:11 51.15107 -0.18897 194 ft 24 kts 257°
2026-04-26 22:12 51.15070 -0.19161 192 ft 24 kts 257°
2026-04-26 22:12 51.15034 -0.19419 191 ft 19 kts 258°
2026-04-26 22:12 51.15005 -0.19629 191 ft 19 kts 258°
2026-04-26 22:12 51.14983 -0.19798 193 ft 9 kts 268°
2026-04-26 22:13 51.14967 -0.19896 193 ft 9 kts 257°
2026-04-26 22:13 51.14949 -0.20022 194 ft 14 kts 257°
2026-04-26 22:13 51.14922 -0.20204 195 ft 19 kts 257°
2026-04-26 22:13 51.14890 -0.20437 195 ft 24 kts 260°
2026-04-26 22:14 51.14888 -0.20462 195 ft 0 kts 261°
2026-04-26 22:14 51.14887 -0.20469 195 ft 3 kts 261°
2026-04-26 22:14 51.14874 -0.20570 194 ft 14 kts 252°
2026-04-26 22:15 51.14843 -0.20628 194 ft 5 kts 217°
2026-04-26 22:15 51.14821 -0.20652 194 ft 5 kts 213°
2026-04-26 22:15 51.14745 -0.20713 194 ft 19 kts 192°
2026-04-26 22:15 51.14675 -0.20698 194 ft 9 kts 173°
2026-04-26 22:16 51.14597 -0.20599 194 ft 22 kts 88°
2026-04-26 22:16 51.14618 -0.20444 195 ft 3 kts 78°
2026-04-26 22:16 51.14686 -0.19959 193 ft 89 kts 77°
2026-04-26 22:16 51.14868 -0.18643 195 ft 160 kts 77°
2026-04-26 22:17 51.15135 -0.16719 672 ft 190 kts 77°
2026-04-26 22:17 51.15442 -0.14632 1243 ft 197 kts 79°
2026-04-26 22:17 51.15696 -0.12470 2036 ft 199 kts 78°
2026-04-26 22:17 51.15965 -0.10292 2616 ft 205 kts 79°
2026-04-26 22:18 51.16233 -0.08048 3238 ft 211 kts 78°
2026-04-26 22:18 51.16674 -0.05817 3240 ft 212 kts 58°
2026-04-26 22:18 51.17827 -0.04434 3135 ft 222 kts 17°
2026-04-26 22:18 51.19425 -0.04420 3210 ft 244 kts 348°
2026-04-26 22:19 51.20980 -0.05495 3329 ft 244 kts 327°
2026-04-26 22:19 51.22210 -0.07354 3259 ft 243 kts 312°
2026-04-26 22:19 51.22994 -0.09801 3382 ft 258 kts 284°
2026-04-26 22:19 51.22979 -0.12653 3914 ft 265 kts 260°
2026-04-26 22:20 51.22406 -0.15413 4576 ft 271 kts 248°
2026-04-26 22:20 51.21646 -0.18160 5568 ft 268 kts 250°
2026-04-26 22:20 51.21127 -0.20963 6355 ft 271 kts 258°
2026-04-26 22:20 51.20774 -0.23920 7162 ft 275 kts 261°
2026-04-26 22:21 51.20463 -0.26933 7961 ft 278 kts 262°
2026-04-26 22:21 51.20140 -0.29944 8748 ft 280 kts 261°
2026-04-26 22:21 51.19791 -0.32997 9544 ft 282 kts 261°
2026-04-26 22:21 51.19427 -0.36079 10324 ft 284 kts 260°
2026-04-26 22:22 51.19062 -0.39131 11087 ft 285 kts 260°
2026-04-26 22:22 51.18689 -0.42228 11897 ft 285 kts 259°
2026-04-26 22:22 51.18314 -0.45352 12416 ft 297 kts 259°
2026-04-26 22:22 51.17915 -0.48667 12901 ft 312 kts 259°
2026-04-26 22:23 51.17456 -0.52140 13362 ft 326 kts 255°
2026-04-26 22:23 51.16741 -0.55548 14148 ft 330 kts 249°
2026-04-26 22:23 51.15860 -0.58964 14884 ft 335 kts 247°
2026-04-26 22:23 51.14928 -0.62361 15529 ft 340 kts 247°
2026-04-26 22:24 51.13977 -0.65806 16192 ft 344 kts 246°
2026-04-26 22:24 51.13023 -0.69314 16932 ft 348 kts 247°
2026-04-26 22:24 51.12073 -0.72861 17551 ft 353 kts 248°
2026-04-26 22:24 51.11118 -0.76457 18205 ft 357 kts 248°
2026-04-26 22:25 51.07032 -0.91836 21095 ft 366 kts 248°
2026-04-26 22:26 51.06031 -0.95585 21693 ft 369 kts 247°
2026-04-26 22:26 51.05033 -0.99311 22302 ft 371 kts 247°
2026-04-26 22:26 51.04021 -1.03092 22906 ft 373 kts 247°
2026-04-26 22:26 51.03011 -1.06854 23465 ft 375 kts 247°
2026-04-26 22:27 51.01975 -1.10712 24037 ft 377 kts 247°
2026-04-26 22:27 51.00957 -1.14497 24520 ft 381 kts 247°
2026-04-26 22:27 50.99909 -1.18379 25065 ft 383 kts 246°
2026-04-26 22:27 50.98857 -1.22274 25554 ft 386 kts 247°
2026-04-26 22:28 50.97785 -1.26242 25991 ft 391 kts 246°
2026-04-26 22:28 50.96710 -1.30207 26472 ft 393 kts 246°
2026-04-26 22:28 50.95639 -1.34149 27074 ft 392 kts 246°
2026-04-26 22:28 50.94587 -1.38098 27764 ft 389 kts 247°
2026-04-26 22:29 50.93597 -1.42022 28365 ft 388 kts 248°
2026-04-26 22:29 50.92628 -1.46005 28919 ft 387 kts 248°
2026-04-26 22:29 50.91649 -1.49972 29432 ft 386 kts 248°
2026-04-26 22:29 50.90632 -1.53854 29989 ft 382 kts 246°
2026-04-26 22:30 50.89487 -1.57663 30396 ft 382 kts 242°
2026-04-26 22:30 50.88187 -1.61313 30766 ft 382 kts 238°
2026-04-26 22:30 50.86759 -1.64874 31271 ft 380 kts 237°
2026-04-26 22:30 50.85246 -1.68285 31742 ft 378 kts 232°
2026-04-26 22:31 50.83602 -1.71507 32208 ft 376 kts 229°
2026-04-26 22:31 50.81870 -1.74550 32641 ft 374 kts 227°
2026-04-26 22:31 50.80094 -1.77564 33109 ft 371 kts 229°
2026-04-26 22:31 50.78522 -1.80794 33375 ft 367 kts 236°
2026-04-26 22:32 50.77273 -1.84179 18691 ft 352 kts 242°
2026-04-26 22:32 50.76312 -1.87631 7391 ft 332 kts 253°
2026-04-26 22:32 50.76097 -1.91275 7397 ft 342 kts 279°
2026-04-26 22:32 50.76973 -1.94812 7393 ft 360 kts 305°
2026-04-26 22:33 50.78818 -1.97521 13295 ft 370 kts 329°
2026-04-26 22:33 50.82470 -2.03380 28485 ft 378 kts 321°
2026-04-26 22:33 50.84884 -2.05187 28484 ft 389 kts 341°
2026-04-26 22:34 50.87595 -2.05819 28485 ft 402 kts 352°
2026-04-26 22:34 50.93285 -2.06856 28499 ft 420 kts 345°
2026-04-26 22:34 50.96128 -2.07946 28618 ft 426 kts 340°
2026-04-26 22:35 50.98949 -2.09467 28897 ft 428 kts 335°
2026-04-26 22:35 51.01671 -2.11346 29247 ft 428 kts 330°
2026-04-26 22:35 51.04316 -2.13492 29560 ft 430 kts 328°
2026-04-26 22:35 51.06907 -2.15816 29857 ft 432 kts 326°
2026-04-26 22:36 51.09512 -2.18304 30021 ft 439 kts 324°
2026-04-26 22:36 51.12103 -2.20872 30224 ft 444 kts 324°
2026-04-26 22:36 51.14739 -2.23545 30405 ft 449 kts 324°
2026-04-26 22:36 51.17357 -2.26227 30783 ft 446 kts 323°
2026-04-26 22:37 51.19936 -2.28880 31293 ft 441 kts 323°
2026-04-26 22:37 51.22480 -2.31507 31800 ft 435 kts 323°
2026-04-26 22:37 51.24985 -2.34098 32315 ft 429 kts 323°
2026-04-26 22:37 51.27462 -2.36666 32826 ft 423 kts 323°
2026-04-26 22:38 51.29924 -2.39223 33348 ft 416 kts 323°
2026-04-26 22:38 51.32335 -2.41735 33869 ft 409 kts 322°
2026-04-26 22:38 51.34679 -2.44177 34380 ft 401 kts 322°
2026-04-26 22:38 51.36976 -2.46570 34869 ft 393 kts 322°
2026-04-26 22:39 51.39247 -2.48941 35310 ft 384 kts 322°
2026-04-26 22:39 51.41462 -2.51254 35748 ft 375 kts 322°
2026-04-26 22:39 51.43626 -2.53517 35944 ft 374 kts 322°
2026-04-26 22:40 51.48018 -2.58140 35980 ft 383 kts 322°
2026-04-26 22:40 51.52519 -2.62888 35980 ft 392 kts 323°
2026-04-26 22:41 51.57117 -2.67727 35979 ft 401 kts 322°
2026-04-26 22:41 51.61803 -2.72672 35975 ft 410 kts 322°
2026-04-26 22:42 51.66614 -2.77770 35974 ft 419 kts 322°
2026-04-26 22:42 51.71537 -2.82993 35974 ft 428 kts 322°
2026-04-26 22:43 51.76538 -2.88323 35975 ft 437 kts 322°
2026-04-26 22:43 51.81594 -2.93719 35974 ft 438 kts 322°
2026-04-26 22:44 51.86691 -2.99170 35972 ft 438 kts 322°
2026-04-26 22:44 51.91738 -3.04580 35972 ft 437 kts 322°
2026-04-26 22:45 51.96801 -3.10028 35968 ft 437 kts 322°
2026-04-26 22:45 52.01830 -3.15456 35968 ft 438 kts 322°
2026-04-26 22:46 52.06894 -3.20931 35969 ft 437 kts 322°
2026-04-26 22:46 52.11956 -3.26416 35971 ft 437 kts 322°
2026-04-26 22:47 52.17019 -3.31919 35966 ft 437 kts 322°
2026-04-26 22:47 52.22049 -3.37406 35968 ft 437 kts 322°
2026-04-26 22:48 52.27089 -3.42919 35965 ft 437 kts 322°
2026-04-26 22:48 52.32143 -3.48461 35968 ft 438 kts 322°
2026-04-26 22:49 52.37174 -3.53992 35969 ft 438 kts 322°
2026-04-26 22:49 52.42187 -3.59519 35971 ft 438 kts 322°
2026-04-26 22:50 52.47210 -3.65073 35969 ft 437 kts 321°
2026-04-26 22:50 52.52236 -3.70646 35968 ft 437 kts 321°
2026-04-26 22:51 52.57278 -3.76253 35964 ft 438 kts 321°
2026-04-26 22:51 52.62309 -3.81863 35967 ft 437 kts 322°
2026-04-26 22:52 52.67322 -3.87467 35967 ft 437 kts 321°
2026-04-26 22:52 52.72329 -3.93080 35972 ft 437 kts 321°
2026-04-26 22:53 52.77325 -3.98701 35974 ft 437 kts 322°
2026-04-26 22:53 52.82335 -4.04351 35974 ft 436 kts 322°
2026-04-26 22:54 52.87303 -4.09966 35972 ft 435 kts 322°
2026-04-26 22:54 52.92281 -4.15611 35972 ft 434 kts 322°
2026-04-26 22:55 52.97250 -4.21260 35975 ft 435 kts 322°
2026-04-26 22:55 53.02210 -4.26916 35980 ft 433 kts 322°
2026-04-26 22:56 53.07170 -4.32589 35979 ft 432 kts 322°
2026-04-26 22:56 53.12099 -4.38242 35983 ft 431 kts 322°
2026-04-26 22:57 53.17029 -4.43916 35984 ft 431 kts 322°
2026-04-26 22:57 53.21935 -4.49577 35988 ft 430 kts 322°
2026-04-26 22:58 53.26870 -4.55285 35984 ft 430 kts 322°
2026-04-26 22:58 53.31764 -4.60962 35982 ft 428 kts 322°
2026-04-26 22:59 53.36657 -4.66654 35981 ft 429 kts 322°
2026-04-26 22:59 53.41495 -4.72294 35980 ft 427 kts 321°
2026-04-26 23:00 53.46373 -4.78001 35978 ft 427 kts 322°
2026-04-26 23:00 53.51207 -4.83670 35981 ft 427 kts 321°
2026-04-26 23:01 53.56038 -4.89353 35977 ft 425 kts 322°
2026-04-26 23:01 53.60873 -4.95058 35980 ft 425 kts 322°
2026-04-26 23:02 53.65716 -5.00786 35981 ft 425 kts 321°
2026-04-26 23:02 53.70524 -5.06492 35974 ft 424 kts 322°
2026-04-26 23:03 53.75323 -5.12202 35980 ft 423 kts 322°
2026-04-26 23:03 53.80110 -5.17915 35979 ft 424 kts 322°
2026-04-26 23:04 53.84885 -5.23628 35975 ft 423 kts 322°
2026-04-26 23:04 53.89668 -5.29367 35975 ft 422 kts 322°
2026-04-26 23:05 53.94452 -5.35126 35968 ft 422 kts 322°
2026-04-26 23:05 53.99205 -5.40863 35974 ft 422 kts 322°
2026-04-26 23:06 54.03975 -5.46635 35975 ft 422 kts 322°
2026-04-26 23:06 54.08722 -5.52399 35980 ft 422 kts 322°
2026-04-26 23:07 54.13496 -5.58208 35974 ft 420 kts 322°
2026-04-26 23:07 54.18243 -5.63999 35977 ft 420 kts 322°
2026-04-26 23:08 54.22963 -5.69778 35978 ft 420 kts 321°
2026-04-26 23:08 54.27688 -5.75579 35982 ft 419 kts 321°
2026-04-26 23:09 54.32412 -5.81397 35980 ft 419 kts 321°
2026-04-26 23:09 54.37125 -5.87216 35976 ft 419 kts 321°
2026-04-26 23:10 54.41843 -5.93059 35981 ft 418 kts 321°
2026-04-26 23:10 54.46524 -5.98873 35989 ft 417 kts 321°
2026-04-26 23:11 54.51208 -6.04709 35996 ft 417 kts 321°
2026-04-26 23:11 54.55871 -6.10533 36000 ft 416 kts 321°
2026-04-26 23:12 54.60555 -6.16402 36004 ft 415 kts 321°
2026-04-26 23:12 54.65221 -6.22265 36008 ft 416 kts 321°
2026-04-26 23:13 54.69873 -6.28131 36003 ft 414 kts 321°
2026-04-26 23:13 54.74488 -6.33961 35999 ft 414 kts 321°
2026-04-26 23:14 54.79131 -6.39840 35998 ft 417 kts 321°
2026-04-26 23:14 54.83841 -6.45841 35992 ft 426 kts 321°
2026-04-26 23:15 54.88641 -6.51980 35992 ft 434 kts 321°
2026-04-26 23:15 54.93524 -6.58241 35989 ft 441 kts 321°
2026-04-26 23:16 54.98458 -6.64584 35987 ft 440 kts 321°
2026-04-26 23:16 55.03344 -6.70875 35989 ft 439 kts 321°
2026-04-26 23:17 55.08249 -6.77203 35993 ft 440 kts 321°
2026-04-26 23:17 55.13140 -6.83533 35994 ft 439 kts 321°
2026-04-26 23:18 55.18025 -6.89879 35993 ft 439 kts 321°
2026-04-26 23:18 55.22875 -6.96195 35992 ft 438 kts 321°
2026-04-26 23:19 55.27766 -7.02587 35986 ft 438 kts 321°
2026-04-26 23:19 55.32602 -7.08924 35986 ft 436 kts 321°
2026-04-26 23:20 55.37445 -7.15293 35980 ft 435 kts 321°
2026-04-26 23:20 55.42280 -7.21673 35988 ft 436 kts 321°
2026-04-26 23:21 55.47082 -7.28026 35981 ft 435 kts 321°
2026-04-26 23:21 55.51890 -7.34408 35976 ft 434 kts 321°
2026-04-26 23:22 55.56687 -7.40794 35988 ft 435 kts 321°
2026-04-26 23:22 55.61491 -7.47215 35975 ft 433 kts 321°
2026-04-26 23:23 55.66275 -7.53624 35988 ft 433 kts 321°
2026-04-26 23:23 55.71057 -7.60050 35978 ft 432 kts 321°
2026-04-26 23:24 55.75797 -7.66438 35986 ft 432 kts 321°
2026-04-26 23:24 55.80570 -7.72891 35979 ft 430 kts 321°
2026-04-26 23:25 55.85278 -7.79278 35980 ft 430 kts 321°
2026-04-26 23:25 55.90015 -7.85720 35980 ft 430 kts 321°
2026-04-26 23:26 55.94758 -7.92198 35983 ft 429 kts 321°
2026-04-26 23:26 55.99449 -7.98624 35980 ft 428 kts 321°
2026-04-26 23:27 56.04153 -8.05090 35975 ft 428 kts 321°
2026-04-26 23:27 56.08865 -8.11583 35971 ft 428 kts 321°
2026-04-26 23:28 56.13549 -8.18060 35976 ft 426 kts 321°
2026-04-26 23:28 56.18222 -8.24537 35968 ft 427 kts 321°
2026-04-26 23:29 56.22866 -8.31000 35969 ft 425 kts 321°
2026-04-26 23:29 56.27525 -8.37498 35972 ft 424 kts 321°
2026-04-26 23:30 56.32175 -8.44009 35971 ft 424 kts 321°
2026-04-26 23:30 56.36801 -8.50507 35973 ft 424 kts 321°
2026-04-26 23:31 56.41454 -8.57063 35969 ft 422 kts 321°
2026-04-26 23:31 56.46051 -8.63558 35968 ft 424 kts 321°
2026-04-26 23:32 56.50682 -8.70125 35969 ft 422 kts 321°
2026-04-26 23:32 56.55257 -8.76635 35969 ft 423 kts 321°
2026-04-26 23:33 56.59856 -8.83195 35966 ft 422 kts 320°
2026-04-26 23:33 56.64446 -8.89763 35967 ft 421 kts 320°
2026-04-26 23:34 56.69025 -8.96338 35968 ft 422 kts 321°
2026-04-26 23:34 56.73587 -9.02909 35973 ft 420 kts 321°
2026-04-26 23:35 56.78150 -9.09503 35965 ft 419 kts 320°
2026-04-26 23:35 56.82693 -9.16088 35966 ft 419 kts 321°
2026-04-26 23:36 56.87238 -9.22695 35961 ft 417 kts 320°
2026-04-26 23:36 56.91736 -9.29248 35969 ft 417 kts 320°
2026-04-26 23:37 56.96251 -9.35856 35959 ft 416 kts 320°
2026-04-26 23:37 57.00776 -9.42497 35958 ft 420 kts 320°
2026-04-26 23:38 57.05291 -9.49158 35959 ft 417 kts 320°
2026-04-26 23:38 57.09803 -9.55824 35960 ft 417 kts 320°
2026-04-26 23:39 57.14278 -9.62466 35949 ft 418 kts 320°
2026-04-26 23:39 57.18789 -9.69174 35947 ft 416 kts 320°
2026-04-26 23:40 57.23278 -9.75864 35936 ft 416 kts 320°
2026-04-26 23:40 57.27758 -9.82566 35950 ft 414 kts 320°
2026-04-26 23:41 57.32200 -9.89239 35938 ft 415 kts 320°
2026-04-26 23:41 57.36661 -9.95963 35936 ft 415 kts 320°
2026-04-26 23:42 57.41143 -10.02734 35944 ft 415 kts 320°
2026-04-26 23:42 57.47795 -10.12824 35938 ft 415 kts 320°
2026-04-26 23:43 57.52246 -10.19608 35938 ft 414 kts 320°
2026-04-26 23:43 57.56679 -10.26379 35930 ft 415 kts 320°
2026-04-26 23:44 57.61117 -10.33189 35933 ft 414 kts 320°
2026-04-26 23:44 57.65541 -10.39998 35925 ft 414 kts 320°
2026-04-26 23:45 57.69971 -10.46832 35927 ft 413 kts 320°
2026-04-26 23:45 57.74389 -10.53670 35922 ft 413 kts 320°
2026-04-26 23:46 57.78781 -10.60497 35925 ft 413 kts 320°
2026-04-26 23:46 57.83186 -10.67365 35927 ft 414 kts 319°
2026-04-26 23:47 57.87572 -10.74231 35921 ft 411 kts 319°
2026-04-26 23:47 57.91965 -10.81121 35928 ft 413 kts 319°
2026-04-26 23:48 57.96347 -10.88023 35913 ft 412 kts 319°
2026-04-26 23:48 58.00718 -10.94922 35915 ft 411 kts 319°
2026-04-26 23:49 58.05071 -11.01808 35911 ft 410 kts 319°
2026-04-26 23:49 58.09425 -11.08730 35919 ft 411 kts 319°
2026-04-26 23:50 58.13772 -11.15665 35904 ft 411 kts 319°
2026-04-26 23:50 58.18152 -11.22673 35909 ft 412 kts 319°
2026-04-26 23:51 58.22483 -11.29630 35918 ft 410 kts 319°
2026-04-26 23:51 58.26819 -11.36618 35900 ft 410 kts 319°
2026-04-26 23:52 58.31142 -11.43604 35897 ft 411 kts 319°
2026-04-26 23:52 58.35466 -11.50615 35909 ft 410 kts 319°
2026-04-26 23:53 58.39793 -11.57653 35903 ft 410 kts 319°
2026-04-26 23:53 58.44128 -11.64732 35900 ft 410 kts 319°
2026-04-26 23:54 58.48415 -11.71754 35899 ft 409 kts 319°
2026-04-26 23:54 58.52720 -11.78832 35896 ft 408 kts 318°
2026-04-26 23:55 58.57017 -11.85912 35899 ft 407 kts 318°
2026-04-26 23:55 58.61283 -11.92973 35888 ft 408 kts 318°
2026-04-26 23:56 58.65529 -12.00017 35908 ft 406 kts 318°
2026-04-26 23:56 58.69805 -12.07135 35881 ft 408 kts 318°
2026-04-26 23:57 58.74045 -12.14223 35885 ft 406 kts 318°
2026-04-26 23:57 58.78292 -12.21339 35878 ft 404 kts 318°
2026-04-26 23:58 58.82471 -12.28363 35890 ft 404 kts 318°
2026-04-26 23:58 58.86713 -12.35533 35884 ft 405 kts 318°
2026-04-26 23:59 58.90918 -12.42655 35882 ft 404 kts 318°
2026-04-26 23:59 58.95113 -12.49784 35877 ft 404 kts 318°
2026-04-27 00:00 58.99320 -12.56951 35879 ft 404 kts 318°
2026-04-27 00:00 59.03508 -12.64121 35870 ft 405 kts 318°
2026-04-27 00:01 59.07722 -12.71359 35868 ft 404 kts 317°
2026-04-27 00:01 59.11902 -12.78556 35869 ft 404 kts 317°
2026-04-27 00:02 59.16079 -12.85770 35869 ft 404 kts 317°
2026-04-27 00:02 59.20256 -12.93020 35876 ft 402 kts 317°
2026-04-27 00:03 59.24427 -13.00281 35868 ft 402 kts 317°
2026-04-27 00:03 59.28593 -13.07552 35872 ft 403 kts 317°
2026-04-27 00:04 59.32732 -13.14799 35863 ft 402 kts 317°
2026-04-27 00:04 59.36870 -13.22063 35866 ft 401 kts 317°
2026-04-27 00:05 59.41003 -13.29352 35865 ft 400 kts 317°
2026-04-27 00:05 59.45130 -13.36660 35865 ft 402 kts 317°
2026-04-27 00:06 59.49263 -13.44009 35858 ft 401 kts 317°
2026-04-27 00:06 59.53376 -13.51335 35866 ft 400 kts 317°
2026-04-27 00:07 59.57478 -13.58667 35854 ft 400 kts 317°
2026-04-27 00:07 59.61606 -13.66081 35870 ft 402 kts 316°
2026-04-27 00:08 59.65705 -13.73470 35861 ft 401 kts 316°
2026-04-27 00:08 59.69837 -13.80934 35851 ft 402 kts 316°
2026-04-27 00:09 59.73934 -13.88358 35847 ft 402 kts 316°
2026-04-27 00:09 59.78059 -13.95876 35993 ft 405 kts 316°
2026-04-27 00:10 59.80097 -13.99597 36182 ft 404 kts 316°
2026-04-27 00:10 59.82174 -14.03396 36347 ft 406 kts 316°
2026-04-27 00:10 59.86319 -14.11007 36664 ft 409 kts 316°
2026-04-27 00:11 59.88427 -14.14884 36854 ft 411 kts 316°
2026-04-27 00:11 59.90494 -14.18692 36974 ft 414 kts 316°
2026-04-27 00:11 59.92616 -14.22607 37137 ft 414 kts 316°
2026-04-27 00:11 59.94718 -14.26494 37290 ft 416 kts 315°
2026-04-27 00:12 59.96827 -14.30400 37425 ft 418 kts 316°
2026-04-27 00:12 59.98949 -14.34334 37656 ft 418 kts 315°
2026-04-27 00:12 60.01062 -14.38261 37801 ft 418 kts 316°
2026-04-27 00:12 60.03215 -14.42267 37833 ft 420 kts 316°
2026-04-27 00:13 60.07464 -14.50193 37844 ft 422 kts 315°
2026-04-27 00:13 60.11732 -14.58198 37912 ft 424 kts 315°
2026-04-27 00:14 60.13876 -14.62230 38079 ft 424 kts 315°
2026-04-27 00:14 60.16032 -14.66290 38237 ft 426 kts 314°
2026-04-27 00:14 60.20359 -14.74467 38393 ft 431 kts 315°
2026-04-27 00:15 60.22528 -14.78581 38535 ft 431 kts 314°
2026-04-27 00:15 60.24681 -14.82672 38747 ft 430 kts 314°
2026-04-27 00:15 60.26848 -14.86787 38988 ft 428 kts 314°
2026-04-27 00:15 60.29017 -14.90913 39146 ft 428 kts 314°
2026-04-27 00:16 60.31173 -14.95022 39327 ft 429 kts 314°
2026-04-27 00:16 60.33330 -14.99142 39374 ft 432 kts 315°
2026-04-27 00:16 60.37685 -15.07498 39364 ft 438 kts 315°
2026-04-27 00:17 60.39895 -15.11749 39527 ft 437 kts 314°
2026-04-27 00:17 60.42086 -15.15970 39678 ft 436 kts 315°
2026-04-27 00:17 60.44273 -15.20187 39818 ft 435 kts 314°
2026-04-27 00:17 60.46442 -15.24378 39889 ft 437 kts 315°
2026-04-27 00:18 60.50815 -15.32850 40001 ft 436 kts 314°
2026-04-27 00:18 60.55180 -15.41343 40003 ft 435 kts 314°
2026-04-27 00:19 60.59510 -15.49800 40000 ft 436 kts 314°
2026-04-27 00:19 60.63851 -15.58319 40004 ft 436 kts 314°
2026-04-27 00:20 60.68218 -15.66915 39991 ft 435 kts 314°
2026-04-27 00:20 60.72520 -15.75417 39998 ft 435 kts 314°
2026-04-27 00:21 60.76870 -15.84048 39985 ft 436 kts 314°
2026-04-27 00:21 60.81163 -15.92600 40002 ft 435 kts 313°
2026-04-27 00:22 60.85487 -16.01244 39974 ft 435 kts 314°
2026-04-27 00:22 60.89783 -16.09872 39987 ft 435 kts 313°
2026-04-27 00:23 60.94117 -16.18609 39995 ft 436 kts 313°
2026-04-27 00:23 60.98416 -16.27312 39972 ft 436 kts 313°
2026-04-27 00:24 61.02700 -16.36019 39976 ft 435 kts 313°
2026-04-27 00:24 61.06975 -16.44747 39973 ft 436 kts 314°
2026-04-27 00:25 61.11280 -16.53570 39957 ft 435 kts 313°
2026-04-27 00:25 61.15552 -16.62363 39967 ft 435 kts 313°
2026-04-27 00:26 61.19808 -16.71147 39954 ft 434 kts 313°
2026-04-27 00:26 61.24041 -16.79920 39952 ft 435 kts 312°
2026-04-27 00:27 61.28297 -16.88779 39967 ft 436 kts 313°
2026-04-27 00:27 61.32571 -16.97715 39958 ft 436 kts 312°
2026-04-27 00:28 61.36814 -17.06619 39947 ft 436 kts 313°
2026-04-27 00:28 61.41042 -17.15528 39941 ft 435 kts 313°
2026-04-27 00:29 61.45270 -17.24475 39945 ft 437 kts 312°
2026-04-27 00:29 61.49525 -17.33520 39943 ft 435 kts 312°
2026-04-27 00:30 61.53736 -17.42510 39946 ft 436 kts 312°
2026-04-27 00:30 61.57979 -17.51598 39942 ft 436 kts 312°
2026-04-27 00:31 61.62186 -17.60653 39937 ft 437 kts 312°
2026-04-27 00:31 61.66392 -17.69742 39947 ft 437 kts 311°
2026-04-27 00:32 61.70618 -17.78911 39944 ft 438 kts 311°
2026-04-27 00:32 61.74842 -17.88110 39946 ft 439 kts 311°
2026-04-27 00:33 61.79060 -17.97336 39941 ft 439 kts 311°
2026-04-27 00:33 61.83291 -18.06629 39938 ft 439 kts 311°
2026-04-27 00:34 61.87506 -18.15929 39935 ft 440 kts 311°
2026-04-27 00:34 61.91709 -18.25242 39931 ft 440 kts 311°
2026-04-27 00:35 61.95925 -18.34616 39922 ft 440 kts 311°
2026-04-27 00:35 62.00132 -18.44014 39926 ft 440 kts 311°
2026-04-27 00:36 62.04308 -18.53378 39919 ft 440 kts 311°
2026-04-27 00:36 62.08495 -18.62817 40021 ft 440 kts 311°
2026-04-27 00:37 62.12679 -18.72290 40108 ft 439 kts 310°
2026-04-27 00:37 62.16866 -18.81805 40194 ft 439 kts 310°
2026-04-27 00:38 62.21020 -18.91285 40281 ft 440 kts 310°
2026-04-27 00:38 62.25176 -19.00809 40363 ft 440 kts 310°
2026-04-27 00:39 62.29327 -19.10369 40453 ft 439 kts 310°
2026-04-27 00:39 62.33484 -19.19985 40546 ft 439 kts 310°
2026-04-27 00:40 62.37594 -19.29528 40671 ft 438 kts 310°
2026-04-27 00:40 62.41715 -19.39146 40689 ft 440 kts 310°
2026-04-27 00:41 62.45872 -19.48886 40686 ft 442 kts 310°
2026-04-27 00:41 62.50011 -19.58624 40690 ft 443 kts 310°
2026-04-27 00:42 62.54166 -19.68446 40681 ft 444 kts 309°
2026-04-27 00:42 62.58292 -19.78239 40681 ft 445 kts 309°
2026-04-27 00:43 62.62451 -19.88150 40680 ft 445 kts 309°
2026-04-27 00:43 62.66595 -19.98066 40673 ft 445 kts 309°
2026-04-27 00:44 62.70720 -20.07988 40675 ft 445 kts 309°
2026-04-27 00:44 62.74849 -20.17967 40673 ft 445 kts 309°
2026-04-27 00:45 62.78965 -20.27956 40669 ft 445 kts 309°
2026-04-27 00:45 62.83073 -20.37971 40663 ft 446 kts 308°
2026-04-27 00:46 62.87186 -20.48042 40666 ft 447 kts 308°
2026-04-27 00:46 62.91298 -20.58161 40667 ft 447 kts 308°
2026-04-27 00:47 62.95405 -20.68314 40650 ft 447 kts 308°
2026-04-27 00:47 62.99512 -20.78508 40654 ft 446 kts 308°
2026-04-27 00:48 63.01567 -20.83627 40425 ft 448 kts 308°
2026-04-27 00:48 63.03607 -20.88724 39938 ft 443 kts 308°
2026-04-27 00:48 63.05296 -20.92942 39847 ft 432 kts 307°
2026-04-27 00:49 63.07255 -20.97841 39591 ft 424 kts 307°
2026-04-27 00:49 63.09195 -21.02707 39014 ft 426 kts 307°
2026-04-27 00:49 63.10812 -21.06780 38468 ft 426 kts 307°
2026-04-27 00:50 63.14551 -21.16225 37549 ft 418 kts 306°
2026-04-27 00:50 63.15727 -21.19199 37239 ft 416 kts 306°
2026-04-27 00:51 63.17090 -21.22654 36811 ft 415 kts 306°
2026-04-27 00:51 63.18962 -21.27410 36312 ft 412 kts 306°
2026-04-27 00:51 63.20882 -21.32155 35837 ft 414 kts 307°
2026-04-27 00:51 63.22824 -21.36769 35385 ft 414 kts 307°
2026-04-27 00:52 63.24777 -21.41323 34964 ft 410 kts 307°
2026-04-27 00:52 63.26728 -21.45847 34421 ft 407 kts 308°
2026-04-27 00:52 63.28671 -21.50366 33695 ft 408 kts 307°
2026-04-27 00:52 63.30672 -21.55057 32662 ft 415 kts 307°
2026-04-27 00:53 63.32661 -21.59753 31755 ft 418 kts 307°
2026-04-27 00:53 63.34635 -21.64426 30948 ft 419 kts 308°
2026-04-27 00:53 63.36630 -21.69158 30100 ft 418 kts 307°
2026-04-27 00:53 63.38592 -21.73822 29652 ft 411 kts 307°
2026-04-27 00:54 63.40549 -21.78492 29610 ft 417 kts 307°
2026-04-27 00:54 63.44500 -21.87985 29606 ft 425 kts 306°
2026-04-27 00:55 63.48520 -21.97681 29600 ft 425 kts 307°
2026-04-27 00:55 63.52493 -22.07313 29594 ft 425 kts 306°
2026-04-27 00:56 63.56507 -22.17082 29592 ft 428 kts 307°
2026-04-27 00:56 63.60519 -22.26882 29594 ft 429 kts 306°
2026-04-27 00:57 63.64524 -22.36720 29589 ft 428 kts 306°
2026-04-27 00:57 63.68534 -22.46613 29585 ft 430 kts 306°
2026-04-27 00:58 63.72549 -22.56551 28901 ft 432 kts 306°
2026-04-27 00:58 63.74575 -22.61581 28325 ft 425 kts 306°
2026-04-27 00:58 63.76505 -22.66365 28056 ft 411 kts 306°
2026-04-27 00:58 63.78386 -22.71037 27799 ft 399 kts 305°
2026-04-27 00:59 63.80240 -22.75657 27585 ft 386 kts 305°
2026-04-27 00:59 63.81981 -22.80007 27409 ft 373 kts 305°
2026-04-27 00:59 63.83687 -22.84284 27229 ft 361 kts 304°
2026-04-27 00:59 63.85348 -22.88463 26930 ft 351 kts 304°
2026-04-27 01:00 63.86909 -22.92572 26300 ft 343 kts 301°
2026-04-27 01:00 63.88275 -22.96743 26009 ft 328 kts 298°
2026-04-27 01:00 63.89558 -23.00973 25466 ft 322 kts 297°
2026-04-27 01:00 63.90787 -23.05146 24752 ft 321 kts 295°
2026-04-27 01:01 63.91618 -23.09697 24048 ft 307 kts 272°
2026-04-27 01:01 63.91405 -23.14301 23415 ft 296 kts 246°
2026-04-27 01:01 63.90346 -23.18248 22842 ft 294 kts 237°
2026-04-27 01:01 63.89445 -23.22357 22227 ft 294 kts 249°
2026-04-27 01:02 63.88854 -23.26738 21613 ft 294 kts 252°
2026-04-27 01:02 63.88034 -23.30923 20936 ft 293 kts 232°
2026-04-27 01:02 63.86588 -23.34080 20403 ft 291 kts 222°
2026-04-27 01:02 63.85057 -23.37113 19794 ft 291 kts 223°
2026-04-27 01:03 63.83698 -23.40350 19431 ft 283 kts 237°
2026-04-27 01:03 63.83099 -23.44461 18950 ft 285 kts 265°
2026-04-27 01:03 63.83566 -23.48821 18371 ft 296 kts 297°
2026-04-27 01:03 63.85045 -23.52033 18070 ft 300 kts 329°
2026-04-27 01:04 63.87079 -23.53145 17604 ft 310 kts 360°
2026-04-27 01:04 63.89131 -23.51799 17055 ft 315 kts 32°
2026-04-27 01:04 63.90710 -23.48412 16448 ft 317 kts 56°
2026-04-27 01:04 63.91816 -23.44044 15704 ft 322 kts 68°
2026-04-27 01:05 63.92726 -23.39476 14968 ft 325 kts 69°
2026-04-27 01:05 63.93652 -23.34771 14212 ft 328 kts 69°
2026-04-27 01:05 63.94585 -23.30093 13532 ft 326 kts 69°
2026-04-27 01:05 63.95508 -23.25514 13192 ft 314 kts 68°
2026-04-27 01:06 63.96419 -23.21005 12551 ft 314 kts 68°
2026-04-27 01:06 63.97293 -23.16463 11829 ft 316 kts 72°
2026-04-27 01:06 63.98229 -23.12045 11281 ft 313 kts 56°
2026-04-27 01:06 63.99865 -23.08903 10789 ft 310 kts 25°
2026-04-27 01:07 64.01929 -23.08045 10281 ft 301 kts 352°
2026-04-27 01:07 64.03822 -23.09668 9772 ft 286 kts 318°
2026-04-27 01:07 64.04953 -23.13111 9264 ft 267 kts 284°
2026-04-27 01:07 64.05027 -23.17080 8768 ft 250 kts 249°
2026-04-27 01:08 64.04082 -23.20224 8251 ft 239 kts 213°
2026-04-27 01:08 64.02557 -23.21265 7753 ft 235 kts 178°
2026-04-27 01:08 64.01090 -23.19838 7319 ft 236 kts 140°
2026-04-27 01:08 64.00399 -23.16560 7208 ft 230 kts 99°
2026-04-27 01:09 64.00616 -23.13007 7069 ft 224 kts 80°
2026-04-27 01:09 64.01020 -23.09631 6657 ft 226 kts 82°
2026-04-27 01:09 64.01073 -23.06062 5893 ft 235 kts 101°
2026-04-27 01:09 64.00814 -23.02401 5452 ft 228 kts 104°
2026-04-27 01:10 64.00558 -22.99021 5168 ft 208 kts 105°
2026-04-27 01:10 64.00222 -22.95898 4585 ft 203 kts 113°
2026-04-27 01:10 63.99690 -22.92943 3964 ft 200 kts 119°
2026-04-27 01:10 63.99139 -22.90141 3666 ft 183 kts 117°
2026-04-27 01:11 63.98766 -22.87539 3475 ft 172 kts 107°
2026-04-27 01:11 63.98672 -22.84839 3183 ft 167 kts 99°
2026-04-27 01:11 63.98738 -22.82234 2869 ft 166 kts 89°
2026-04-27 01:11 63.98825 -22.79679 2556 ft 158 kts 101°
2026-04-27 01:12 63.98632 -22.77256 2223 ft 150 kts 108°
2026-04-27 01:12 63.98484 -22.74971 1866 ft 147 kts 97°
2026-04-27 01:12 63.98570 -22.72671 1484 ft 145 kts 96°
2026-04-27 01:12 63.98543 -22.70335 919 ft 148 kts 98°
2026-04-27 01:13 63.98499 -22.68066 515 ft 143 kts 96°
2026-04-27 01:13 63.98506 -22.65886 257 ft 130 kts 95°
2026-04-27 01:13 63.98501 -22.63943 155 ft 115 kts 95°
2026-04-27 01:13 63.98486 -22.62262 140 ft 80 kts 91°
2026-04-27 01:14 63.98499 -22.61283 146 ft 1 kts 89°
2026-04-27 01:15 63.98499 -22.61282 145 ft 0 kts 79°
2026-04-27 01:16 63.99246 -22.61827 141 ft 0 kts 90°
2026-04-27 01:16 63.99245 -22.61827 142 ft 0 kts 90°